Location: Unspecified
(0.0000°N, 0.0000°E)
Time: 20:12:29
(UTC+00:00)

ISS - Pass Details

Date: 19 June 2019
Orbit: 407 x 419 km, 51.6° (Epoch: 26 June)

Event Time Altitude Azimuth Distance (km) Brightness Sun altitude
Exits shadow 05:27:29 - 212° (SSW) 1,782 -1.1 -7.7°
Reaches altitude 10° 05:28:14 10° 211° (SSW) 1,473 -1.5 -7.6°
Maximum altitude 05:31:32 76° 125° (SE) 424 -3.7 -6.8°
Drops below altitude 10° 05:34:48 10° 39° (NE) 1,461 0.2 -6.1°
Sets 05:36:53 0° 38° (NE) 2,316 1.3 -5.6°
